CZ-4C DEB, 44617

Orbit data source: Space-Track

CZ-4C DEB, 44617 is space debris in LEO originally from a launch on Tue, 10 Apr 2018 UTC launched from the Taiyaun Space Center, China (TSC). Debris objects in space refer to the collection of defunct objects orbiting the Earth. Examples of debris include non-operational satellites, rocket bodies, and fragments generated from explosions, collisions, or faulty payload assembly.

Loading next visibility...
Identifier
44617, 2018-034J
Orbit
LEO
Country
Flag of CNCN / PRC
Related business
Manufacturer
Unknown
Mission
Spacecraft
Bus & Motor
Unknown
Mass
Unknown
Launch date (UTC)
2018-04-10 (8 years ago)
Launch vehicle
Unknown
Launch site
Taiyaun Space Center, China (TSC)
Object type
Payload
Rocket body
Debris
Shape & HBR
Unknown shape, 0.1 m
Radar Cross Section
Small (<0.1 m²)

Expand to show TLE details & history
Last TLE update: 1 day ago

TLE from 1 day ago
0 CZ-4C DEB
1 44617U 18034J   25310.39024566 -.00000032  00000-0  88658-4 0  9999
2 44617  63.4008 358.9496 0232428   6.8406 353.5698 13.40995709364362
Epoch: 2025-11-06T09:21Z
TLE epoch observation values (Epoch: 2025-11-06T09:21:57.225Z)
Latitude
-0.00001°
Longitude
172.61191°
Altitude
934.523 km
Speed
7.47 km/s
True Right ascension
23h 55m 47s
True Declination
0° 00' 00"
Sunlit
Object was in full shadow at epoch
Visualization orbit readout
Latitude
Unknown
Longitude
Unknown
Altitude
Unknown
Speed
Unknown
Apparent Right ascension
Unknown
Apparent Declination
Unknown
Sunlit
N/A
Visualization observer readout
Local Sidereal Time
07:08:59
Azimuth
Unknown
Elevation
Unknown
Doppler factor
Unknown
Orbital elements
Apogee altitude
1,278.319 km
Perigee altitude
930.488 km
Semi-major axis
7,482.54 km
Eccentricity
0.02324
Inclination
63.4008°
RAAN
358.9496°
Arg. of periapsis
6.8406°
True anomaly
353.26266°
Mean anomaly
353.5698°
Eccentric anomaly
353.41713°
Mean motion
3.35328 °/min
Orbital period
107.36 mins
BSTAR
0.000088658
Loading maneuver chart data...
Computing Atmospheric mass density...
Loading historical data...
Loading historical data...
Loading historical data...
Loading historical data...
Loading historical data...
Loading historical data...
Loading historical data...

Documentation

Showing up to 5 results
|